Location: Newark
(45.8511°N, 10.8245°E)
Time: 08:03:48
(UTC+00:00)

OTV 5 (USA 277) - Pass Details

Date: 24 August 2019
Orbit: 295 x 339 km, 54.5° (Epoch: 08 September)

Event Time Altitude Azimuth Distance (km) Brightness Sun altitude
Rises 19:27:54 0° 222° (SW) 1,996 ? -13.2°
Reaches altitude 10° 19:29:53 10° 215° (SW) 1,169 ? -13.4°
Maximum altitude 19:32:22 45° 141° (SE) 416 ? -13.8°
Enters shadow 19:32:55 38° 101° (E) 479 ? -13.9°
